DW9923 Weather Reports


Display with metric or nautical units.
time (UTC)temp
F
wind
direction
speed
MPH
gust
MPH
rain 1hr
in
rain 24hr
in
rain mn
in
humidity
%
barometer
mb
20260510014904 73 290 0.0 0.0 0.00 0.01 0.01 63
20260510014403 73 290 0.0 1.0 0.00 0.01 0.01 63
20260510013237 74 290 1.0 6.0 0.00 0.01 0.01 62
20260510012103 74 300 1.0 4.0 0.00 0.01 0.01 61
20260510011613 74 300 2.0 6.0 0.00 0.01 0.01 61
20260510011102 74 300 3.0 6.0 0.00 0.01 0.01 61
20260510010551 75 299 3.0 9.0 0.00 0.01 0.01 61
20260510010045 75 302 3.0 9.0 0.00 0.01 0.01 61
20260510005537 75 297 3.0 9.0 0.00 0.01 0.01 60
20260510004350 76 273 3.0 8.0 0.00 0.01 0.01 60
20260510002542 76 298 4.0 8.0 0.00 0.01 0.01 60
20260510002025 76 295 4.0 8.0 0.00 0.01 0.01 61
20260510000857 76 292 4.0 9.0 0.00 0.01 0.01 60
20260510000356 75 273 5.0 10.0 0.00 0.01 0.01 60
20260509235855 76 281 4.0 10.0 0.00 0.01 0.01 60
20260509235335 76 301 4.0 10.0 0.00 0.01 0.01 61
20260509234823 76 266 5.0 10.0 0.00 0.01 0.01 60
20260509234319 76 306 5.0 10.0 0.00 0.01 0.01 60
20260509233828 76 254 5.0 12.0 0.00 0.01 0.01 60
20260509233331 76 295 5.0 12.0 0.00 0.01 0.01 59
20260509232839 77 292 5.0 12.0 0.00 0.01 0.01 59
20260509231712 77 296 5.0 12.0 0.00 0.01 0.01 58
20260509231220 77 294 5.0 12.0 0.00 0.01 0.01 58
20260509230716 77 294 5.0 9.0 0.00 0.01 0.01 58
20260509230200 77 299 5.0 10.0 0.00 0.01 0.01 58
20260509225709 77 310 5.0 10.0 0.00 0.01 0.01 58
20260509225156 77 322 5.0 10.0 0.00 0.01 0.01 58
20260509224027 77 275 4.0 10.0 0.00 0.01 0.01 58
20260509223522 77 305 4.0 10.0 0.00 0.01 0.01 60
20260509223022 77 305 5.0 8.0 0.00 0.01 0.01 58
20260509222507 77 310 5.0 9.0 0.00 0.01 0.01 59
20260509221956 77 306 5.0 9.0 0.00 0.01 0.01 59
20260509221501 77 304 5.0 9.0 0.00 0.01 0.01 58
20260509221007 78 311 5.0 9.0 0.00 0.01 0.01 59
20260509220513 78 286 5.0 9.0 0.00 0.01 0.01 58
20260509220022 78 298 5.0 9.0 0.00 0.01 0.01 59
20260509215527 77 311 4.0 9.0 0.00 0.01 0.01 58
20260509215022 77 309 4.0 9.0 0.00 0.01 0.01 59
20260509214518 77 309 5.0 9.0 0.00 0.01 0.01 59
20260509213329 77 305 5.0 10.0 0.00 0.01 0.01 59
20260509212819 77 285 5.0 10.0 0.00 0.01 0.01 59
20260509212315 77 317 6.0 10.0 0.00 0.01 0.01 60
20260509211801 78 291 5.0 10.0 0.00 0.01 0.01 59
20260509211241 78 315 5.0 10.0 0.00 0.01 0.01 57
20260509210737 79 312 5.0 9.0 0.00 0.01 0.01 56
20260509210227 80 308 4.0 9.0 0.00 0.01 0.01 56
20260509205732 80 301 4.0 9.0 0.00 0.01 0.01 56
20260509205213 81 315 2.0 9.0 0.00 0.01 0.01 55
20260509204713 81 287 1.0 5.0 0.00 0.01 0.01 56
20260509204158 81 247 1.0 5.0 0.00 0.01 0.01 58
20260509203703 80 347 2.0 8.0 0.00 0.01 0.01 59
20260509203208 79 310 3.0 8.0 0.00 0.01 0.01 59
20260509202709 79 287 3.0 8.0 0.00 0.01 0.01 57
20260509202208 79 294 3.0 8.0 0.00 0.01 0.01 60
20260509201044 77 314 3.0 9.0 0.00 0.01 0.01 62
20260509200525 76 282 4.0 9.0 0.00 0.01 0.01 63
20260509200011 76 303 5.0 9.0 0.00 0.01 0.01 63
20260509195504 76 312 5.0 9.0 0.00 0.01 0.01 62
20260509195008 76 309 4.0 9.0 0.00 0.01 0.01 62
20260509194451 76 303 4.0 8.0 0.00 0.01 0.01 63
20260509194000 76 301 4.0 8.0 0.00 0.01 0.01 63
20260509193459 76 292 4.0 8.0 0.00 0.01 0.01 63
20260509192959 76 309 4.0 7.0 0.00 0.01 0.01 62
20260509192500 75 302 3.0 7.0 0.00 0.01 0.01 63
20260509192002 76 313 3.0 7.0 0.00 0.01 0.01 63
20260509191455 76 284 3.0 9.0 0.00 0.01 0.01 63
20260509190943 75 260 2.0 9.0 0.00 0.01 0.01 64
20260509190448 75 292 3.0 9.0 0.00 0.01 0.01 64
20260509185309 74 298 2.0 8.0 0.00 0.01 0.01 66
20260509184810 74 289 3.0 8.0 0.00 0.01 0.01 66
20260509183702 73 298 3.0 7.0 0.00 0.01 0.01 68
20260509183143 73 294 2.0 7.0 0.00 0.01 0.01 68
20260509182647 73 293 2.0 7.0 0.00 0.01 0.01 69
20260509182152 72 294 2.0 6.0 0.00 0.01 0.01 70
20260509181656 71 69 3.0 6.0 0.00 0.01 0.01 70
20260509181153 71 327 3.0 6.0 0.00 0.01 0.01 70
20260509180634 71 289 3.0 6.0 0.00 0.01 0.01 71
20260509175509 70 306 1.0 5.0 0.00 0.01 0.01 74
20260509174357 69 300 1.0 7.0 0.00 0.01 0.01 77
20260509173904 68 323 2.0 6.0 0.00 0.01 0.01 79
20260509172743 66 303 1.0 5.0 0.00 0.01 0.01 82
20260509172232 66 309 2.0 7.0 0.00 0.01 0.01 84
20260509170448 62 302 0.0 1.0 0.00 0.01 0.01 92
20260509165930 61 302 0.0 0.0 0.00 0.01 0.01 93
20260509165413 61 302 0.0 0.0 0.00 0.01 0.01 93
20260509164252 60 302 0.0 0.0 0.00 0.01 0.01 94
20260509163753 60 302 0.0 0.0 0.00 0.01 0.01 95
20260509163246 59 302 0.0 0.0 0.00 0.01 0.01 95
20260509161509 58 302 0.0 0.0 0.00 0.01 0.01 94
20260509161013 58 302 0.0 0.0 0.00 0.01 0.01 95
20260509155859 57 302 0.0 0.0 0.00 0.01 0.01 95
20260509155347 57 302 0.0 0.0 0.00 0.01 0.01 95
20260509154846 57 302 0.0 0.0 0.00 0.01 0.01 94
20260509154355 57 302 0.0 0.0 0.00 0.01 0.01 94
20260509153843 57 302 0.0 0.0 0.00 0.01 0.01 95
20260509153330 56 302 0.0 0.0 0.00 0.01 0.01 95
20260509152831 56 302 0.0 0.0 0.00 0.01 0.01 95
20260509152317 56 302 0.0 0.0 0.00 0.01 0.01 94
20260509151138 56 302 0.0 0.0 0.00 0.01 0.01 94
20260509150625 56 302 0.0 0.0 0.00 0.01 0.01 94
20260509150114 56 302 0.0 0.0 0.00 0.01 0.01 94
20260509145624 56 302 0.0 0.0 0.00 0.01 0.01 94
20260509145105 56 302 0.0 0.0 0.00 0.01 0.01 94
20260509144600 56 302 0.0 0.0 0.00 0.01 0.01 94
20260509144053 55 302 0.0 0.0 0.00 0.01 0.01 94
20260509143555 55 302 0.0 0.0 0.00 0.01 0.01 94
20260509143044 55 302 0.0 0.0 0.00 0.01 0.01 94
20260509142548 55 302 0.0 0.0 0.00 0.01 0.01 94
20260509142041 55 302 0.0 0.0 0.00 0.01 0.01 94
20260509135709 54 302 0.0 0.0 0.00 0.01 0.01 94
20260509135214 54 302 0.0 0.0 0.00 0.01 0.01 94
20260509133502 54 302 0.0 0.0 0.00 0.01 0.01 94
20260509133000 54 302 0.0 0.0 0.00 0.01 0.01 94
20260509132455 54 302 0.0 0.0 0.00 0.01 0.01 94
20260509131953 54 302 0.0 0.0 0.00 0.01 0.01 94
20260509131441 54 302 0.0 0.0 0.00 0.01 0.01 94
20260509130945 54 302 0.0 0.0 0.00 0.01 0.01 94
20260509130437 54 302 0.0 0.0 0.00 0.01 0.01 94
20260509125942 54 302 0.0 0.0 0.00 0.01 0.01 94
20260509125445 54 302 0.0 0.0 0.00 0.01 0.01 94
20260509125050 54 302 0.0 0.0 0.00 0.01 0.01 94
20260509124544 54 302 0.0 0.0 0.00 0.01 0.01 94
20260509122803 54 302 0.0 0.0 0.00 0.00 0.00 94
20260509122301 54 302 0.0 0.0 0.00 0.00 0.00 94
20260509121202 54 302 0.0 0.0 0.00 0.00 0.00 93
20260509120646 54 302 0.0 0.0 0.00 0.00 0.00 93
20260509114921 54 302 0.0 0.0 0.00 0.00 0.00 93
20260509114430 54 302 0.0 0.0 0.00 0.00 0.00 93
20260509113914 53 302 0.0 0.0 0.00 0.00 0.00 93
20260509113406 53 302 0.0 0.0 0.00 0.00 0.00 93
20260509112910 53 302 0.0 0.0 0.00 0.00 0.00 93
20260509112352 53 302 0.0 0.0 0.00 0.00 0.00 93
20260509111900 53 302 0.0 0.0 0.00 0.00 0.00 93
20260509111348 53 302 0.0 0.0 0.00 0.00 0.00 93
20260509110837 53 302 0.0 0.0 0.00 0.00 0.00 93
20260509110344 53 302 0.0 0.0 0.00 0.00 0.00 93
20260509105850 52 302 0.0 0.0 0.00 0.00 0.00 93
20260509104717 52 302 0.0 0.0 0.00 0.00 0.00 93
20260509104214 52 302 0.0 0.0 0.00 0.00 0.00 93
20260509103042 52 302 0.0 0.0 0.00 0.00 0.00 92
20260509101933 51 302 0.0 0.0 0.00 0.00 0.00 92
20260509101431 51 302 0.0 0.0 0.00 0.00 0.00 92
20260509100938 51 302 0.0 0.0 0.00 0.00 0.00 91
20260509100424 51 302 0.0 0.0 0.00 0.00 0.00 91
20260509095923 51 302 0.0 0.0 0.00 0.00 0.00 91
20260509095410 50 302 0.0 0.0 0.00 0.00 0.00 90
20260509094859 50 302 0.0 0.0 0.00 0.00 0.00 90
20260509093723 50 302 0.0 0.0 0.00 0.00 0.00 89
20260509093232 50 302 0.0 0.0 0.00 0.00 0.00 89
20260509092724 50 302 0.0 0.0 0.00 0.00 0.00 89
20260509092222 50 302 0.0 0.0 0.00 0.00 0.00 89
20260509091718 50 302 0.0 0.0 0.00 0.00 0.00 88
20260509091216 50 302 0.0 0.0 0.00 0.00 0.00 89
20260509090709 51 302 0.0 0.0 0.00 0.00 0.00 89
20260509090156 51 302 0.0 0.0 0.00 0.00 0.00 88
20260509085646 51 302 0.0 0.0 0.00 0.00 0.00 88
20260509084537 51 302 0.0 0.0 0.00 0.00 0.00 88
20260509084045 51 302 0.0 0.0 0.00 0.00 0.00 88
20260509083531 51 302 0.0 0.0 0.00 0.00 0.00 88
20260509083020 51 302 0.0 0.0 0.00 0.00 0.00 88
20260509080616 52 302 0.0 0.0 0.00 0.00 0.00 88
20260509080104 52 302 0.0 0.0 0.00 0.00 0.00 88
20260509074933 52 302 0.0 0.0 0.00 0.00 0.00 88
20260509074415 52 302 0.0 0.0 0.00 0.00 0.00 87
20260509073909 52 302 0.0 0.0 0.00 0.00 0.00 87
20260509073354 53 302 0.0 0.0 0.00 0.00 0.00 87
20260509072849 53 302 0.0 0.0 0.00 0.00 0.00 87
20260509072334 53 302 0.0 0.0 0.00 0.00 0.00 87
20260509071816 53 302 0.0 0.0 0.00 0.00 0.00 87
20260509071306 53 302 0.0 0.0 0.00 0.00 0.00 87
20260509070805 53 302 0.0 0.0 0.00 0.00 0.00 87
20260509070257 53 302 0.0 0.0 0.00 0.00 0.00 87
20260509065806 54 302 0.0 0.0 0.00 0.00 0.00 87
20260509065306 54 302 0.0 0.0 0.00 0.00 0.00 87
20260509064752 54 302 0.0 0.0 0.00 0.00 0.00 87
20260509062411 54 302 0.0 0.0 0.00 0.00 0.00 86
20260509061904 54 302 0.0 0.0 0.00 0.00 0.00 86
20260509060722 54 302 0.0 0.0 0.00 0.00 0.00 86
20260509060222 54 302 0.0 0.0 0.00 0.00 0.00 85
20260509055723 55 302 0.0 0.0 0.00 0.00 0.00 85
20260509055217 55 302 0.0 0.0 0.00 0.00 0.00 85
20260509054725 55 302 0.0 0.0 0.00 0.00 0.00 85
20260509054217 55 302 0.0 0.0 0.00 0.00 0.00 85
20260509053700 55 302 0.0 0.0 0.00 0.00 0.00 85
20260509053207 55 302 0.0 0.0 0.00 0.00 0.00 84
20260509052705 56 302 0.0 0.0 0.00 0.00 0.00 85
20260509051531 56 302 0.0 0.0 0.00 0.00 0.00 84
20260509051014 56 302 0.0 0.0 0.00 0.00 0.00 84
20260509050508 57 302 0.0 0.0 0.00 0.00 0.00 84
20260509045949 57 302 0.0 0.0 0.00 0.00 0.00 84
20260509044845 57 302 0.0 0.0 0.00 0.00 0.00 83
20260509044328 57 302 0.0 0.0 0.00 0.00 0.00 83
20260509043809 58 302 0.0 0.0 0.00 0.00 0.00 83
20260509043303 58 302 0.0 0.0 0.00 0.00 0.00 82
20260509042757 58 302 0.0 0.0 0.00 0.00 0.00 82
20260509042251 58 302 0.0 0.0 0.00 0.00 0.00 82
20260509041748 58 302 0.0 0.0 0.00 0.00 0.00 81
20260509041251 59 302 0.0 0.0 0.00 0.00 0.00 81
20260509040756 59 302 0.0 0.0 0.00 0.00 0.00 81
20260509040244 59 302 0.0 0.0 0.00 0.00 0.00 81
20260509035732 60 302 0.0 0.0 0.00 0.00 0.00 80
20260509035220 60 302 0.0 0.0 0.00 0.00 0.00 80
20260509034711 60 302 0.0 0.0 0.00 0.00 0.00 80
20260509034202 60 302 0.0 0.0 0.00 0.00 0.00 80
20260509033707 61 302 0.0 0.0 0.00 0.00 0.00 79
20260509033207 61 302 0.0 0.0 0.00 0.00 0.00 79
20260509032648 61 302 0.0 0.0 0.00 0.00 0.00 79
20260509031510 62 302 0.0 0.0 0.00 0.00 0.00 78
20260509030405 63 302 0.0 0.0 0.00 0.00 0.00 78
20260509025906 63 302 0.0 0.0 0.00 0.00 0.00 77
20260509025410 63 302 0.0 0.0 0.00 0.00 0.00 78
20260509024905 63 302 0.0 0.0 0.00 0.00 0.00 77
20260509024409 64 302 0.0 0.0 0.00 0.00 0.00 77
20260509023854 64 302 0.0 2.0 0.00 0.00 0.00 76
20260509023352 64 302 0.0 2.0 0.00 0.00 0.00 76
20260509022228 65 302 0.0 3.0 0.00 0.00 0.00 75
20260509021727 66 302 1.0 3.0 0.00 0.00 0.00 74
20260509021230 66 302 1.0 3.0 0.00 0.00 0.00 73
20260509020736 67 302 1.0 3.0 0.00 0.00 0.00 72
20260509020235 67 302 1.0 3.0 0.00 0.00 0.00 72
20260509015744 68 302 1.0 3.0 0.00 0.00 0.00 71
20260509015237 68 302 1.0 3.0 0.00 0.00 0.00 70